{"data":{"norad_id":65645,"epoch":"2026-09-20T00:44:01.840704Z","epoch_age_seconds":149024,"freshness":"FRESH","line1":"1 65645U 25210Z   26263.03057686  .00014686  00000+0  44475-3 0  9991","line2":"2 65645  53.1574 123.8103 0000995 115.9849 244.1256 15.34412565 57496","mean_motion":15.34412565,"eccentricity":9.95e-5,"inclination_deg":53.1574,"raan_deg":123.8103,"arg_perigee_deg":115.9849,"mean_anomaly_deg":244.1256,"bstar":0.00044475,"rev_number":5749,"period_min":93.846989580667,"perigee_km":461.98523474598,"apogee_km":463.34655452202,"semimajor_km":6840.802894634,"source":"CELESTRAK","updated_at":"2026-09-21T09:00:35.677586Z"}}